Regional Weather Roundup
Issued by NWS

Home | Current Version | Previous Version | Graphics & Text | Print | Product List | Glossary On
Versions: 1 2 3 4 5 6 7 8 9 10 11 12 13 14 15 16 17 18 19 20 21 22 23 24 25 26 27 28 29 30 31 32 33 34 35 36 37 38 39 40 41 42 43 44 45 46 47 48 49 50
000
ASUS43 KLSX 280507
RWRMO

WEATHER SUMMARY FOR MISSOURI
NATIONAL WEATHER SERVICE SPRINGFIELD MO
1100 PM CST MON FEB 27 2017

NOTE: "FAIR" INDICATES FEW OR NO CLOUDS BELOW 12,000 FEET WITH NO
       SIGNIFICANT WEATHER AND/OR OBSTRUCTIONS TO VISIBILITY.
       CURRENT SKY AND/OR WEATHER CONDITIONS ARE NOT AVAILABLE FOR
       CHILLICOTHE AND FARMINGTON.

MOZ001>031-035>038-043-044-053-054-280600-
...NORTHERN AND WESTERN MISSOURI...

CITY           SKY/WX    TMP DP  RH WIND       PRES   REMARKS
KANSAS CTY INT MOCLDY    58  51  78 S15       29.75F
KANSAS C DTWN  PTCLDY    61  52  72 S14       29.76S
LEE`S SUMMIT   PTCLDY    59  52  77 S16       29.78F
ST JOSEPH      CLOUDY    48  39  71 S5        29.75F
CHILLICOTHE      N/A     57  41  55 S9        29.80F
KIRKSVILLE     CLOUDY    51  37  58 S8        29.82F

$$
MOZ066>068-077>081-088>096-101>105-280600-
...SOUTHWEST MISSOURI...

CITY           SKY/WX    TMP DP  RH WIND       PRES   REMARKS
SPRINGFIELD    CLOUDY    57  51  80 S18       29.90F
JOPLIN         CLOUDY    62  56  80 S17       29.85F
BRANSON        CLOUDY    57  54  88 SE9       29.96S

$$
MOZ032>034-039>042-045>050-055>058-069>072-280600-
...CENTRAL MISSOURI...

CITY           SKY/WX    TMP DP  RH WIND       PRES   REMARKS
COLUMBIA       MOCLDY    58  49  72 S21       29.88S
JEFFERSON CITY PTCLDY    59  48  67 S14G23    29.90S
ROLLA          CLOUDY    55  49  80 S16       29.93F THUNDER
SEDALIA        CLOUDY    60  50  69 S17G25    29.84F
WHITEMAN AFB   PTCLDY    59  55  85 S17       29.80F
WARRENSBURG    PTCLDY    57  48  72 S12       29.80F
OSAGE BEACH    CLOUDY    58  49  72 S13       29.90F

$$
MOZ051-052-059>065-280600-
...EAST CENTRAL MISSOURI...

CITY           SKY/WX    TMP DP  RH WIND       PRES   REMARKS
ST LOUIS INTL  CLOUDY    58  50  75 S15       29.95F
SPIRIT OF STL  CLOUDY    58  50  75 S10       29.93F
ST CHARLES     CLOUDY    57  51  80 S13       29.93F

$$
MOZ072>076-082>087-097>100-106>115-280600-
...SOUTH CENTRAL AND SOUTHEAST MISSOURI...

CITY           SKY/WX    TMP DP  RH WIND       PRES   REMARKS
CAPE GIRARDEAU LGT RAIN  55  46  71 SE14      30.04F
FARMINGTON     LGT RAIN  54  51  90 S13       30.00F
POPLAR BLUFF   CLOUDY    55  51  86 SE5       30.03F
WEST PLAINS    CLOUDY    54  51  90 S10       30.00F

$$


USA.gov is the U.S. government's official web portal to all federal, state and local government web resources and services.